Flag for U.S.A. Weather past 2 weeks in Key West, Florida, U.S.A.

Now
85 °F

Clear.


Feels Like: 95 °F
Forecast: 80 / 89 °F
Wind: 5 mph from South

Location: Key West International Airport

Current Time: Jul 31, 2015 at 6:16:01 AM

Latest Report: Jul 31, 2015 at 5:53 AM


Visibility: 10 mi

Pressure: 30.00 "Hg

Humidity: 77%

Dew point: 77 °F

Location of Key WestLocation

Historic Weather in Key West — Graph

°F

Key West temperature yesterday

Maximum temperature yesterday: 88 °F (at 9:53 AM)
Minimum temperature yesterday: 83 °F (at 4:53 AM)
Average temperature yesterday: 86 °F

Past Weeks' High & Low Weather Summary

 TemperatureHumidityPressure
High94 °F (Jul 28, 3:53 PM)94% (Jul 24, 3:53 AM)30.09 "Hg (Jul 24, 3:53 AM)
Low76 °F (Jul 26, 2:53 PM)44% (Jul 28, 3:53 PM)29.90 "Hg (Jul 26, 4:53 AM)
Average86 °F70%30.02 "Hg
* Reported Jul 16 4:53 AM — Jul 31 4:53 AM, Key West, Weather by CustomWeather, © 2015

Note: Actual official high and low records may vary slightly from our data, if they occured in-between our weather recording intervals... More about our weather records

Advertising

Key West weather history for previous 24 hours

 ConditionsComfort  
Time TempWeatherWind HumidityBarometerVisibility
4:53 AM
Fri, Jul 31
85 °FPassing clouds.3 mph75%30.00 "Hg10 mi
3:53 AM85 °FClear.5 mph75%30.00 "Hg10 mi
2:53 AM85 °FClear.3 mph70%30.01 "Hg10 mi
1:53 AM84 °FClear.No wind72%30.03 "Hg10 mi
12:53 AM83 °FClear.No wind77%30.04 "Hg10 mi
11:53 PM
Thu, Jul 30
84 °FClear.3 mph80%30.05 "Hg10 mi
10:53 PM86 °FClear.No wind65%30.04 "Hg10 mi
9:53 PM86 °FClear.No wind65%30.03 "Hg10 mi
8:53 PM86 °FSunny.No wind67%30.02 "Hg10 mi
7:53 PM86 °FSunny.5 mph70%30.01 "Hg10 mi
6:53 PM86 °FSunny.7 mph67%29.99 "Hg10 mi
5:53 PM87 °FSunny.7 mph69%29.99 "Hg10 mi
4:53 PM88 °FSunny.7 mph65%30.00 "Hg10 mi
3:53 PM87 °FSunny.8 mph69%30.01 "Hg10 mi
2:53 PM88 °FSunny.7 mph65%30.03 "Hg10 mi
1:53 PM87 °FSunny.5 mph65%30.04 "Hg10 mi
12:53 PM88 °FSunny.6 mph65%30.06 "Hg10 mi
11:53 AM87 °FSunny.6 mph67%30.07 "Hg10 mi
10:53 AM87 °FSunny.7 mph63%30.06 "Hg10 mi
9:53 AM88 °FSunny.5 mph59%30.05 "Hg10 mi
8:53 AM86 °FSunny.5 mph65%30.05 "Hg10 mi
7:53 AM85 °FClear.3 mph70%30.03 "Hg10 mi
6:53 AM84 °FPassing clouds.No wind77%30.01 "Hg10 mi
Weather by CustomWeather, © 2015

See weather overviewHow to use our weather pages